DW2830 Weather Reports


Display with metric or nautical units.
time (UTC)temp
F
wind
direction
speed
MPH
gust
MPH
rain 1hr
in
rain 24hr
in
rain mn
in
humidity
%
barometer
mb
20190324093203 33 252 0.0 0.0 0.00 0.00 0.00 85 1022.5
20190324092705 33 252 0.0 0.0 0.00 0.00 0.00 85 1022.4
20190324091209 33 252 0.0 0.0 0.00 0.00 0.00 85 1022.4
20190324090704 33 252 0.0 0.0 0.00 0.00 0.00 85 1022.3
20190324085709 33 252 0.0 0.0 0.00 0.00 0.00 85 1022.2
20190324085203 33 252 0.0 0.0 0.00 0.00 0.00 85 1022.2
20190324083704 33 252 0.0 0.0 0.00 0.00 0.00 85 1022.0
20190324083203 33 252 0.0 0.0 0.00 0.00 0.00 85 1021.9
20190324082704 33 252 0.0 0.0 0.00 0.00 0.00 84 1022.0
20190324082204 33 252 0.0 0.0 0.00 0.00 0.00 84 1022.0
20190324081704 33 252 0.0 0.0 0.00 0.00 0.00 84 1022.1
20190324081204 33 252 0.0 0.0 0.00 0.00 0.00 84 1022.0
20190324080704 33 252 0.0 0.0 0.00 0.00 0.00 84 1022.0
20190324075709 33 252 0.0 0.0 0.00 0.00 0.00 84 1021.9
20190324073703 33 252 0.0 0.0 0.00 0.00 0.00 84 1022.1
20190324073209 33 252 0.0 0.0 0.00 0.00 0.00 84 1022.0
20190324072704 33 252 0.0 0.0 0.00 0.00 0.00 84 1022.1
20190324071204 34 252 0.0 0.0 0.00 0.00 0.00 83 1022.1
20190324070704 34 252 0.0 0.0 0.00 0.00 0.00 83 1022.1
20190324070209 34 252 0.0 0.0 0.00 0.00 0.00 83 1022.1
20190324065704 34 252 0.0 0.0 0.00 0.00 0.00 83 1022.1
20190324065204 34 252 0.0 0.0 0.00 0.00 0.00 83 1022.2
20190324064203 34 252 0.0 0.0 0.00 0.00 0.00 83 1022.3
20190324063703 34 252 0.0 0.0 0.00 0.00 0.00 83 1022.3
20190324062204 34 252 0.0 0.0 0.00 0.00 0.00 83 1022.4
20190324061704 34 252 0.0 0.0 0.00 0.00 0.00 83 1022.4
20190324060704 34 252 0.0 0.0 0.00 0.00 0.00 82 1022.5
20190324055704 34 252 0.0 0.0 0.00 0.00 0.00 82 1022.4
20190324055204 34 252 0.0 0.0 0.00 0.00 0.00 82 1022.5
20190324054704 35 252 0.0 0.0 0.00 0.00 0.00 82 1022.3
20190324054204 35 252 0.0 0.0 0.00 0.00 0.00 82 1022.4
20190324053704 35 252 0.0 0.0 0.00 0.00 0.00 81 1022.4
20190324053204 35 252 0.0 0.0 0.00 0.00 0.00 81 1022.5
20190324052204 35 252 0.0 0.0 0.00 0.00 0.00 80 1022.5
20190324051704 35 252 0.0 0.0 0.00 0.00 0.00 80 1022.5
20190324045204 37 252 0.0 0.0 0.00 0.00 0.00 77 1022.6
20190324044704 37 252 0.0 0.0 0.00 0.00 0.00 77 1022.6
20190324044204 37 252 0.0 0.0 0.00 0.00 0.00 75 1022.7
20190324043204 37 252 0.0 0.0 0.00 0.00 0.00 74 1022.6
20190324041704 37 252 0.0 0.0 0.00 0.00 0.00 73 1022.5
20190324040704 38 252 0.0 0.0 0.00 0.00 0.00 71 1022.3
20190324035704 38 252 0.0 0.0 0.00 0.00 0.00 69 1022.3
20190324035206 39 252 0.0 0.0 0.00 0.00 0.00 69 1022.4
20190324034704 39 252 0.0 0.0 0.00 0.00 0.00 69 1022.2
20190324034204 39 252 0.0 0.0 0.00 0.00 0.00 69 1022.2
20190324033204 40 252 0.0 0.0 0.00 0.00 0.00 68 1022.1
20190324032704 40 252 0.0 0.0 0.00 0.00 0.00 68 1022.1
20190324032203 40 252 0.0 0.0 0.00 0.00 0.00 69 1022.1
20190324031704 40 252 0.0 0.0 0.00 0.00 0.00 68 1022.1
20190324031204 40 252 0.0 0.0 0.00 0.00 0.00 67 1022.1
20190324030704 40 252 0.0 0.0 0.00 0.00 0.00 66 1022.0
20190324030203 40 252 0.0 0.0 0.00 0.00 0.00 65 1021.9
20190324024703 41 252 0.0 0.0 0.00 0.00 0.00 64 1021.8
20190324022204 42 252 0.0 0.0 0.00 0.00 0.00 62 1021.8
20190324021704 42 252 0.0 0.0 0.00 0.00 0.00 61 1021.7
20190324020704 42 252 0.0 0.0 0.00 0.00 0.00 60 1021.6
20190324015704 43 252 0.0 0.0 0.00 0.00 0.00 60 1021.5
20190324015204 43 252 0.0 0.0 0.00 0.00 0.00 61 1021.4
20190324013204 45 252 0.0 0.0 0.00 0.00 0.00 53 1021.3
20190324012704 46 252 0.0 0.0 0.00 0.00 0.00 54 1021.3
20190324011704 47 252 0.0 0.0 0.00 0.00 0.00 51 1021.2
20190324011203 47 252 0.0 0.0 0.00 0.00 0.00 49 1021.1
20190324010704 47 252 0.0 0.0 0.00 0.00 0.00 49 1021.1
20190324010209 47 252 0.0 0.0 0.00 0.00 0.00 50 1021.1
20190324005705 48 252 0.0 0.0 0.00 0.00 0.00 50 1021.0
20190324005203 48 252 0.0 0.0 0.00 0.00 0.00 52 1020.9
20190324004704 49 252 0.0 0.0 0.00 0.00 0.00 50 1020.8
20190324003204 51 252 0.0 0.0 0.00 0.00 0.00 41 1020.8
20190324002705 52 252 0.0 0.0 0.00 0.00 0.00 40 1020.7
20190324002204 53 252 0.0 0.0 0.00 0.00 0.00 40 1020.7
20190324001204 55 252 0.0 0.0 0.00 0.00 0.00 38 1020.6
20190324000705 55 252 0.0 0.0 0.00 0.00 0.00 36 1020.6
20190324000204 56 252 0.0 0.0 0.00 0.00 0.00 37 1020.5
20190323235204 56 252 0.0 0.0 0.00 0.00 0.00 34 1020.3
20190323234205 58 252 0.0 0.0 0.00 0.00 0.00 35 1020.1
20190323232704 60 252 0.0 0.0 0.00 0.00 0.00 32 1019.9
20190323231704 61 252 0.0 3.0 0.00 0.00 0.00 32 1019.9
20190323231203 62 252 0.0 4.0 0.00 0.00 0.00 33 1020.0
20190323230704 62 252 0.0 4.0 0.00 0.00 0.00 29 1019.9
20190323225204 62 254 0.0 3.0 0.00 0.00 0.00 26 1019.8
20190323224704 63 254 0.0 7.0 0.00 0.00 0.00 27 1019.8
20190323224204 63 254 1.0 7.0 0.00 0.00 0.00 29 1019.8
20190323223704 63 254 1.0 5.0 0.00 0.00 0.00 27 1019.8
20190323223204 63 259 1.0 3.0 0.00 0.00 0.00 26 1019.7
20190323222705 63 267 0.0 3.0 0.00 0.00 0.00 28 1019.7
20190323222204 63 267 0.0 5.0 0.00 0.00 0.00 29 1019.7
20190323221704 63 267 0.0 8.0 0.00 0.00 0.00 29 1019.6
20190323221204 63 268 1.0 8.0 0.00 0.00 0.00 29 1019.6
20190323220204 64 236 1.0 8.0 0.00 0.00 0.00 27 1019.5
20190323215704 64 234 2.0 8.0 0.00 0.00 0.00 28 1019.5
20190323215204 64 227 1.0 4.0 0.00 0.00 0.00 26 1019.4
20190323214704 64 265 0.0 8.0 0.00 0.00 0.00 27 1019.4
20190323213704 63 267 3.0 12.0 0.00 0.00 0.00 27 1019.4
20190323213204 64 284 4.0 12.0 0.00 0.00 0.00 25 1019.4
20190323211704 63 258 1.0 8.0 0.00 0.00 0.00 29 1019.4
20190323210704 63 283 3.0 13.0 0.00 0.00 0.00 28 1019.4
20190323210204 63 286 4.0 13.0 0.00 0.00 0.00 27 1019.5
20190323204704 63 279 2.0 10.0 0.00 0.00 0.00 26 1019.4
20190323203204 63 294 2.0 7.0 0.00 0.00 0.00 27 1019.5
20190323202204 63 63 2.0 7.0 0.00 0.00 0.00 31 1019.5
20190323201704 62 288 0.0 5.0 0.00 0.00 0.00 33 1019.6
20190323201204 62 297 0.0 8.0 0.00 0.00 0.00 27 1019.6
20190323200204 62 288 2.0 14.0 0.00 0.00 0.00 30 1019.7
20190323195704 62 274 3.0 14.0 0.00 0.00 0.00 27 1019.8
20190323195204 62 270 3.0 12.0 0.00 0.00 0.00 27 1019.8
20190323194704 62 259 2.0 13.0 0.00 0.00 0.00 28 1019.8
20190323194204 62 294 3.0 15.0 0.00 0.00 0.00 29 1019.8
20190323192704 62 304 4.0 11.0 0.00 0.00 0.00 29 1019.9
20190323191704 61 275 0.0 11.0 0.00 0.00 0.00 30 1019.8
20190323191204 61 313 2.0 12.0 0.00 0.00 0.00 27 1020.0
20190323190704 61 255 4.0 12.0 0.00 0.00 0.00 29 1020.3
20190323190204 60 267 5.0 14.0 0.00 0.00 0.00 32 1020.3
20190323185709 60 268 4.0 14.0 0.00 0.00 0.00 29 1020.3
20190323185204 60 286 4.0 14.0 0.00 0.00 0.00 29 1020.4
20190323184209 60 285 2.0 8.0 0.00 0.00 0.00 31 1020.5
20190323183704 60 242 3.0 11.0 0.00 0.00 0.00 31 1020.5
20190323183204 60 270 3.0 14.0 0.00 0.00 0.00 30 1020.5
20190323182704 60 242 5.0 14.0 0.00 0.00 0.00 28 1020.6
20190323182204 60 288 5.0 14.0 0.00 0.00 0.00 31 1020.6
20190323181204 59 304 2.0 9.0 0.00 0.00 0.00 28 1020.6
20190323180704 59 288 3.0 11.0 0.00 0.00 0.00 30 1020.7
20190323175204 59 248 4.0 11.0 0.00 0.00 0.00 29 1020.7
20190323174204 60 274 2.0 11.0 0.00 0.00 0.00 30 1020.8
20190323173704 59 238 3.0 11.0 0.00 0.00 0.00 32 1020.8
20190323171704 58 279 3.0 16.0 0.00 0.00 0.00 33 1021.0
20190323171209 58 270 1.0 11.0 0.00 0.00 0.00 32 1021.1
20190323165204 58 279 3.0 11.0 0.00 0.00 0.00 32 1021.4
20190323161705 56 278 5.0 12.0 0.00 0.00 0.00 31 1021.4
20190323161204 56 258 5.0 9.0 0.00 0.00 0.00 36 1021.4
20190323155205 55 250 2.0 11.0 0.00 0.00 0.00 35 1021.4
20190323154704 55 260 3.0 10.0 0.00 0.00 0.00 35 1021.6
20190323154204 55 292 3.0 8.0 0.00 0.00 0.00 36 1021.5
20190323153704 54 30 2.0 11.0 0.00 0.00 0.00 31 1021.4
20190323152704 54 237 5.0 11.0 0.00 0.00 0.00 36 1021.3
20190323152209 54 256 5.0 13.0 0.00 0.00 0.00 35 1021.4
20190323151707 53 250 5.0 13.0 0.00 0.00 0.00 38 1021.4
20190323151204 53 273 5.0 13.0 0.00 0.00 0.00 35 1021.3
20190323150703 53 265 4.0 11.0 0.00 0.00 0.00 35 1021.2
20190323150204 53 296 3.0 11.0 0.00 0.00 0.00 37 1021.2
20190323145704 53 220 2.0 12.0 0.00 0.00 0.00 41 1021.1
20190323144704 53 208 4.0 9.0 0.00 0.00 0.00 40 1021.2
20190323143204 51 258 2.0 9.0 0.00 0.00 0.00 42 1021.0
20190323142204 51 284 5.0 9.0 0.00 0.00 0.00 40 1020.9
20190323141704 51 288 3.0 7.0 0.00 0.00 0.00 43 1020.9
20190323141204 51 277 1.0 7.0 0.00 0.00 0.00 45 1020.8
20190323140704 50 271 2.0 7.0 0.00 0.00 0.00 48 1020.8
20190323140204 50 268 2.0 7.0 0.00 0.00 0.00 47 1020.7
20190323135203 49 288 2.0 7.0 0.00 0.00 0.00 48 1020.7
20190323134704 49 290 1.0 6.0 0.00 0.00 0.00 50 1020.6
20190323134204 48 297 1.0 5.0 0.00 0.00 0.00 53 1020.5
20190323132204 45 277 0.0 5.0 0.00 0.00 0.00 60 1020.3
20190323131204 43 275 1.0 5.0 0.00 0.00 0.00 66 1020.3
20190323130704 42 271 0.0 0.0 0.00 0.00 0.00 71 1020.1
20190323130207 41 269 0.0 0.0 0.00 0.00 0.00 77 1020.1
20190323124705 38 269 0.0 0.0 0.00 0.00 0.00 81 1019.8
20190323123703 36 9 0.0 0.0 0.00 0.00 0.00 80 1019.8
20190323123204 36 262 0.0 0.0 0.00 0.00 0.00 80 1019.6
20190323122204 35 282 0.0 0.0 0.00 0.00 0.00 80 1019.4
20190323121703 35 282 0.0 0.0 0.00 0.00 0.00 80 1019.2
20190323120704 34 311 0.0 2.0 0.00 0.00 0.00 79 1019.0
20190323115704 33 311 0.0 4.0 0.00 0.00 0.00 77 1018.8
20190323115204 33 311 1.0 4.0 0.00 0.00 0.00 77 1018.6
20190323114203 33 311 0.0 0.0 0.00 0.00 0.00 78 1018.4
20190323113704 34 311 0.0 0.0 0.00 0.00 0.00 78 1018.5
20190323113204 34 311 0.0 0.0 0.00 0.00 0.00 77 1018.4
20190323112704 34 311 0.0 0.0 0.00 0.00 0.00 75 1018.3
20190323111703 33 311 0.0 4.0 0.00 0.00 0.00 75 1018.1
20190323105704 34 311 0.0 2.0 0.00 0.00 0.00 73 1017.7
20190323104704 35 311 1.0 0.0 0.00 0.00 0.00 76 1017.5
20190323101703 36 311 0.0 2.0 0.00 0.00 0.00 70 1016.8
20190323101204 36 311 0.0 2.0 0.00 0.00 0.00 70 1016.7
20190323100204 37 311 0.0 0.0 0.00 0.00 0.00 68 1016.5
20190323095704 38 311 0.0 0.0 0.00 0.00 0.00 68 1016.3
20190323094704 38 311 0.0 0.0 0.00 0.00 0.00 66 1016.1
20190323094204 39 311 0.0 0.0 0.00 0.00 0.00 65 1016.0